Location: Burland Observatory
(39.4088°N, 105.4217°W)
Time: 15:44:31
(UTC-07:00)

Explorer 7 - Pass Details

Date: 08 December 2019
Orbit: 485 x 679 km, 50.3° (Epoch: 21 January)

Event Time Altitude Azimuth Distance (km) Brightness Sun altitude
Rises 17:21:15 0° 257° (WSW) 2,995 12.7 -8.3°
Reaches altitude 10° 17:23:42 10° 265° (W) 2,097 11.2 -8.8°
Maximum altitude 17:28:18 41° 335° (NNW) 983 8.1 -9.6°
Enters shadow 17:32:43 11° 45° (NE) 2,027 9.1 -10.4°
